DRAGON CRS-11 DEB

Last updated on Tue Jun 20 2017 00:15:03 GMT+0000 (Coordinated Universal Time)

1 42746U 17030C 17158.18639517 .03496503 11855-4 15989-2 0 9994 2 42746 51.6432 87.1411 0062650 71.0341 350.3063 16.16161590 526

Satellite not in orbit